Location: Shoeburyness
(51.5333°N, 0.8000°E)
Time: 05:44:59
(UTC+00:00)

Daily predictions for brighter satellites

Satellite Brightness Start Highest point End
(mag) Time Altitude Azimuth Time Altitude Azimuth Time Altitude Azimuth
Cosmos 2219 Rocket 4.4 00:08:19 20° NNW 00:08:19 20° NNW 00:11:23 10° NNE
Cosmos 2237 Rocket 4.3 00:26:53 22° N 00:26:53 22° N 00:29:09 10° NNE
CZ-2D R/B 4.4 00:43:10 10° NE 00:45:07 19° NE 00:45:07 19° NE
Resurs 1-4 Rocket 4.4 00:44:43 10° NE 00:46:32 19° NE 00:46:32 19° NE
SL-16 R/B 3.7 00:59:05 38° NNE 00:59:05 38° NNE 01:03:24 10° N
SL-16 R/B 4.0 01:06:44 27° N 01:06:44 27° N 01:09:29 10° NNE
Cosmos 2344 4.3 01:05:55 43° NW 01:06:39 44° NNW 01:14:42 10° NE
Cosmos 1943 4.5 01:39:45 37° NNE 01:39:45 37° NNE 01:43:04 10° NNE
ATLAS 5 CENTAUR R/B 4.2 01:40:35 18° NNE 01:40:35 18° NNE 01:41:53 10° NE
ADEOS II 3.7 01:33:23 10° NNE 01:36:36 30° ENE 01:36:36 30° ENE
Cosmos 2237 Rocket 4.5 02:08:41 13° NNW 02:09:40 14° NNW 02:12:34 10° N
Cosmos 1697 Rocket 4.0 02:08:00 10° NNW 02:13:14 37° NE 02:18:26 10° ESE
NPP 4.5 02:10:52 10° NNE 02:14:37 46° N 02:14:37 46° N
Cosmos 1821 Rocket 4.1 02:17:01 73° NE 02:17:01 73° NE 02:22:48 10° NNE
Cosmos 2123 Rocket 4.3 02:17:32 10° N 02:23:46 64° ENE 02:24:57 54° SE
CZ-2D R/B 3.1 02:22:46 10° N 02:26:25 40° NNW 02:26:25 40° NNW
Resurs 1-4 Rocket 3.1 02:24:11 10° N 02:27:37 38° NNW 02:27:37 38° NNW
Cosmos 1934 Rocket 4.4 02:35:19 48° SE 02:36:50 60° E 02:43:02 10° NNE
Cosmos 1140 Rocket 4.2 02:34:16 10° NNW 02:38:03 48° N 02:38:03 48° N
SL-16 R/B 3.9 02:44:11 26° NW 02:44:11 26° NW 02:47:03 10° NNW
Cosmos 1932 4.3 02:46:39 81° WSW 02:46:58 86° NW 02:53:27 10° NE
SL-16 R/B 4.2 02:48:36 16° NW 02:49:31 16° NNW 02:53:03 10° NNE
IDEFIX/ARIANE 42P 3.0 02:45:25 10° N 02:49:43 53° NNW 02:49:43 53° NNW
Cosmos 1980 Rocket 3.5 02:47:56 10° NNW 02:53:08 38° NE 02:58:19 10° ESE
MSX 3.7 02:51:57 10° NNE 02:57:42 72° WNW 02:57:46 72° WNW
IRS-1D 3.5 03:04:08 10° NNE 03:09:31 90° E 03:10:11 70° SSW
Cosmos 1190 Rocket 4.1 03:05:17 10° NNW 03:10:31 76° ENE 03:15:43 10° SSE
BREEZE-M DEB (TANK) 4.1 03:13:26 24° ESE 03:13:26 24° ESE 03:14:27 10° E
Cosmos 1633 Rocket 4.1 03:08:51 10° N 03:13:03 45° ENE 03:17:12 10° SSE
Cosmos 44 4.1 03:13:57 35° NNW 03:13:57 35° NNW 03:17:29 10° NNE
ATLAS CENTAUR R/B 3.7 03:12:26 16° SSE 03:14:48 23° ESE 03:18:37 10° ENE
ADEOS II 2.8 03:13:09 10° N 03:17:31 38° NW 03:17:31 38° NW
EO 1 Del DPAF 4.3 03:14:59 10° NNE 03:17:08 36° NNE 03:17:08 36° NNE
Meteor 1-5 Rocket 4.2 03:13:15 10° NNW 03:18:00 55° WNW 03:18:00 55° WNW
Cosmos 2221 4.5 03:21:33 18° NNW 03:21:33 18° NNW 03:23:08 10° NNW
Cosmos 407 Rocket 3.4 03:15:09 10° NNW 03:27:30 - SSE 03:20:08 64° W
ATLAS 5 CENTAUR R/B 3.5 03:22:01 18° NNW 03:23:17 20° N 03:26:54 10° NE
Cosmos 1666 Rocket 3.8 03:21:11 10° N 03:25:41 72° ENE 03:30:04 10° SSE
Meteor 1-14 Rocket 4.2 03:22:08 10° NNW 03:28:01 63° W 03:30:18 37° SSW
USA 307 3.8 03:32:44 35° SSE 03:33:11 37° SE 03:37:02 10° ENE
CZ-2C R/B 2.6 03:29:35 10° NNE 03:34:39 69° ESE 03:37:30 25° S
Cosmos 1833 Rocket 3.0 03:32:50 29° S 03:35:41 66° ESE 03:41:19 10° NE
Cosmos 2360 4.1 03:31:27 10° NW 03:37:10 70° WSW 03:42:49 10° SSE
FENGYUN 3A 3.5 03:34:00 10° NNE 03:39:25 79° WNW 03:41:44 36° SSW
Cosmos 1151 Rocket 2.9 03:39:15 42° S 03:40:38 82° E 03:44:55 10° NNE
Meteor 1-11 Rocket 3.9 03:36:16 10° NNW 03:42:18 83° ENE 03:48:16 10° SSE
Sich 1 4.3 03:39:01 10° NNW 03:41:12 26° NW 03:41:12 26° NW
USA 306 3.3 03:44:56 43° S 03:45:41 49° SSE 03:49:41 10° ENE
ARIANE 5 R/B 3.1 03:43:50 10° NNE 03:48:49 56° E 03:53:43 10° S
Cosmos 2098 Rocket 4.0 03:49:13 10° NNW 03:50:20 21° NNW 03:50:20 21° NNW
Lacrosse 4 Rocket 3.5 03:48:40 10° NNW 03:52:25 28° NE 03:56:13 10° E
Cosmos 2082 Rocket 3.5 03:47:34 10° S 03:52:43 39° ESE 03:57:54 10° NE
Cosmos 1153 Rocket 4.5 03:47:24 10° S 03:53:33 83° E 03:59:49 10° NNE
RUBIN 8/PSLV 4.5 03:49:32 10° NNE 03:53:54 85° WNW 03:56:07 29° SSW
ALOS 2.2 03:49:45 10° N 03:54:24 66° WNW 03:56:16 35° SW
Cosmos 1470 Rocket 3.7 03:52:34 10° N 03:56:56 74° E 04:01:16 10° SSE
Cosmos 1697 Rocket 2.8 03:51:56 10° NW 03:57:24 52° WSW 04:02:51 10° S
METEOR-M 4.2 03:54:19 10° NNE 03:59:43 82° ESE 04:05:04 10° SSW
COSMOS 2406 3.8 03:55:00 10° S 04:00:28 56° ESE 04:06:01 10° NE
Helios 1B rocket 2.3 03:56:26 10° NNE 04:00:31 89° ESE 04:03:02 23° SSW
Cosmos 676 Rocket 3.9 03:55:33 10° NNW 04:00:45 72° WSW 04:05:59 10° SSE
Cosmos 2360 Rocket 4.4 03:56:56 10° NNW 04:01:24 23° NE 04:05:49 10° E
Cosmos 1447 Rocket 4.5 03:55:49 10° NNW 04:02:02 60° W 04:08:10 10° S
Cosmos 1356 3.1 04:02:57 62° WSW 04:03:17 69° WNW 04:06:32 10° N
IRS-P3 4.2 03:59:01 10° NNE 04:04:24 77° ESE 04:09:44 10° SSW
CZ-2D R/B 4.0 04:01:25 10° NNE 04:05:20 56° ESE 04:09:16 10° S
ERBS 1.8 04:06:51 69° NW 04:06:59 71° NNW 04:09:53 10° ENE
CZ-2D R/B 4.1 04:04:41 10° NNW 04:07:00 13° NW 04:07:43 13° NW
Cosmos 1743 2.5 04:03:31 10° NNW 04:07:18 68° W 04:11:04 10° S
USA 308 3.2 04:06:20 32° SSW 04:07:59 57° SSE 04:12:03 10° ENE
Resurs 1-4 Rocket 4.1 04:06:09 10° NNW 04:08:02 12° NW 04:08:41 12° NW
BREEZE-M DEB (TANK) 2.0 04:07:53 45° SSW 04:08:14 49° SSE 04:11:53 10° E
CZ-2C R/B 2.5 04:03:29 10° S 04:08:42 73° WSW 04:14:04 10° NNW
Cosmos 1624 Rocket 4.0 04:06:30 18° SSW 04:10:30 87° WNW 04:15:53 10° NNE
Meteor 2-6 Rocket 4.4 04:10:13 25° SW 04:13:09 49° WNW 04:18:33 10° N
Cosmos 1536 2.8 04:09:22 10° NNW 04:13:23 61° W 04:17:22 10° S
Envisat 3.6 04:10:23 10° NNE 04:15:25 58° E 04:20:25 10° S
Cosmos 1441 Rocket 3.0 04:12:34 15° S 04:15:36 89° E 04:19:23 10° NNE
Meteor 1-4 Rocket 2.5 04:12:59 10° NNW 04:16:33 56° W 04:20:07 10° S
Cosmos 1371 Rocket 4.0 04:20:33 17° SW 04:24:32 65° WNW 04:29:46 10° NNE
Cosmos 1346 Rocket 2.9 04:22:51 20° SW 04:25:26 54° WNW 04:29:21 10° N
Cosmos 2322 Rocket 3.6 04:22:30 10° NNW 04:27:52 40° NE 04:33:11 10° ESE
IDEFIX/ARIANE 42P 4.4 04:26:43 10° NNW 04:29:14 14° NW 04:30:31 13° WNW
Cosmos 1605 Rocket 4.5 04:26:57 18° SW 04:31:01 38° WNW 04:36:40 10° N
COSMO-SKYMED 1 3.7 04:26:56 10° SE 04:31:06 46° ENE 04:35:17 10° N
H-2A R/B 3.5 04:30:01 10° NNE 04:33:35 52° E 04:37:09 10° S
USA 305 2.8 04:33:26 22° WSW 04:36:01 87° SSE 04:40:11 10° ENE
Cosmos 1459 Rocket 4.0 04:29:49 10° S 04:36:12 84° W 04:42:37 10° N
SL-08 R/B 3.4 04:31:47 10° S 04:36:21 54° W 04:41:02 10° NNW
Tsikada Rocket 4.5 04:30:06 10° N 04:36:27 67° ENE 04:42:40 10° SSE
Cosmos 1980 Rocket 2.3 04:31:55 10° NW 04:37:19 49° WSW 04:42:40 10° S
DELTA 2 DEB (DPAF) 4.4 04:33:26 10° S 04:37:38 42° W 04:41:51 10° NNW
Cosmos 1869 Rocket 4.2 04:34:38 10° N 04:39:05 62° ENE 04:43:27 10° SSE
CENTAUR R/B 3.5 04:33:47 10° SSW 04:39:22 48° ESE 04:46:08 10° NE
Meteor 2-9 Rocket 4.2 04:34:12 10° NNW 04:40:00 79° W 04:45:38 10° S
Meteor 1-29 2.8 04:37:05 10° NNE 04:40:23 85° ESE 04:43:41 10° SSW
X-37B 2.1 04:42:04 17° SW 04:43:18 22° S 04:45:39 10° SE
CZ-2C R/B 3.5 04:37:28 10° NNE 04:43:19 78° ESE 04:48:55 10° S
Cosmos 2369 4.0 04:38:30 10° NW 04:43:49 42° WSW 04:49:05 10° S
Cosmos 1802 Rocket 4.1 04:37:53 10° S 04:44:17 89° WNW 04:50:38 10° N
Cosmos 1242 Rocket 4.4 04:41:23 10° N 04:44:35 33° ENE 04:47:43 10° SE
Meteor 1-27 Rocket 3.8 04:39:47 10° SSW 04:45:31 62° WNW 04:51:24 10° N
Cosmos 1850 Rocket 4.0 04:40:26 10° NNW 04:45:46 75° WSW 04:51:05 10° SSE
COSMOS 2455 4.1 04:40:17 10° NNW 04:46:01 42° NE 04:51:43 10° ESE
YAOGAN 6 2.6 04:45:29 10° N 04:49:04 56° WNW 04:52:38 10° SSW
Cosmos 1633 Rocket 4.2 04:47:11 10° NW 04:50:33 22° W 04:53:54 10° SW
Cosmos 2278 3.7 04:45:51 10° NW 04:51:29 67° WSW 04:57:04 10° SSE
ATLAS CENTAUR R/B 1.8 04:48:27 11° SW 04:53:09 74° NW 04:58:01 10° NE
DMSP B5D2-2 4.3 04:47:57 10° SSE 04:53:12 79° ENE 04:58:31 10° NNW
Cosmos 1725 Rocket 4.1 04:47:49 10° S 04:54:10 85° E 05:00:32 10° N
Cosmos 2056 Rocket 3.9 04:50:11 11° SW 04:54:50 42° WNW 04:59:42 10° NNE
SL-16 R/B 2.5 04:49:23 10° NNW 04:55:06 74° ENE 05:00:46 10° SE
CZ-4C R/B 3.6 04:52:16 10° S 04:56:23 56° W 05:00:40 10° NNW
Cosmos 375 4.5 04:54:34 10° SW 04:58:31 85° NW 05:03:23 10° NE
NOSS 3-2 (A) 3.9 04:54:09 10° SSW 04:59:34 61° SE 05:05:56 10° NE
Okean 1 3.3 04:56:33 10° SSW 05:00:34 64° WNW 05:04:36 10° N
NOAA 11 4.4 04:55:37 10° NNE 05:01:10 78° ESE 05:06:37 10° SSW
BREEZE-M DEB (TANK) 3.7 04:59:06 13° WSW 05:01:18 27° SSW 05:07:00 10° SE
Cosmos 1933 Rocket 3.9 04:57:43 10° NNW 05:01:57 43° W 05:06:07 10° SSW
Cosmos 44 Rocket 3.2 04:58:38 10° SW 05:03:21 87° NW 05:08:06 10° NE
Cosmos 1420 Rocket 4.5 04:58:49 10° SW 05:03:47 42° NW 05:08:44 10° NNE
Cosmos 1461 4.0 05:01:15 10° SSW 05:05:05 45° ESE 05:09:06 10° NE
Cosmos 2173 Rocket 4.1 05:01:08 10° SSW 05:07:05 51° WNW 05:13:02 10° N
Cosmos 1484 Rocket 3.5 05:03:43 10° N 05:07:19 34° WNW 05:10:56 10° SW
ATLAS 5 CENTAUR R/B 3.8 05:05:28 10° NW 05:09:18 24° NNE 05:13:45 10° ENE
GP-B 3.4 05:05:10 10° SSW 05:09:26 47° W 05:13:45 10° NNW
Spot 4 Rocket 4.1 05:05:52 10° N 05:10:57 63° WNW 05:16:01 10° SSW
SJ-6F 4.5 05:06:56 10° NNE 05:11:07 88° WNW 05:15:15 10° SSW
CZ-2C R/B 3.7 05:08:32 10° N 05:12:21 22° WNW 05:16:05 10° WSW
USA 307 2.9 05:08:19 10° WSW 05:12:24 79° NNW 05:16:36 10° ENE
PSLV R/B 3.5 05:08:22 10° NNE 05:12:44 76° WNW 05:17:01 10° SSW
Cosmos 1741 Rocket 4.2 05:09:14 10° NW 05:14:13 47° WSW 05:19:12 10° S
Cosmos 1733 4.2 05:12:20 10° N 05:16:01 51° ENE 05:19:39 10° SSE
Orbus 7S? 4.0 05:12:43 10° WSW 05:16:11 72° NNW 05:23:45 10° ENE
OPS 6432 4.0 05:14:09 10° NW 05:17:07 76° SW 05:20:19 10° SE
SKYMED 2 3.6 05:14:49 10° S 05:19:07 64° WSW 05:23:28 10° NNW
CZ-4B R/B 3.8 05:14:09 10° NNE 05:19:24 80° ESE 05:24:41 10° SSW
Cosmos 1833 Rocket 3.6 05:15:06 10° WSW 05:20:04 31° NW 05:25:05 10° NNE
Cosmos 2333 Rocket 3.5 05:15:57 10° NNW 05:21:24 43° NE 05:26:47 10° ESE
Cosmos 1975 2.9 05:18:38 10° NNW 05:22:34 56° W 05:26:27 10° S
SL-24 R/B - RUBIN 2 4.5 05:18:42 10° SSW 05:22:59 51° SE 05:27:13 10° NE
SJ-12 3.9 05:20:05 10° NNE 05:24:10 82° WNW 05:28:15 10° SSW
USA 306 3.0 05:20:53 10° W 05:25:01 69° N 05:29:09 10° ENE
Cosmos 2219 Rocket 3.8 05:20:48 10° NNW 05:26:01 36° NE 05:31:10 10° ESE
CZ-3 R/B 4.4 05:16:16 10° SW 05:27:05 19° SSW 05:32:39 10° SSE
BREEZE M DEB (TANK) 4.0 05:16:48 10° W 05:33:10 73° SSW 05:37:18 10° ESE
